Flag for Canada Weather past 2 weeks in Thompson, Manitoba, Canada

Now
30 °F

Passing clouds.


Feels Like: 30 °F
Forecast: 36 / 48 °F
Wind: No wind

Location: Thompson

Current Time: Sep 20, 2014 at 5:24:53 AM

Latest Report: Sep 20, 2014 at 5:00 AM


Visibility: 15 mi

Pressure: 29.69 "Hg

Humidity: 100%

Dew point: 30 °F

Location of ThompsonLocation

Historic Weather in Thompson — Graph

°F

Thompson temperature yesterday

Maximum temperature yesterday: 52 °F (at 12:00 AM)
Minimum temperature yesterday: 30 °F (at 11:00 PM)
Average temperature yesterday: 46 °F

Past Weeks' High & Low Weather Summary

 TemperatureHumidityPressure
High57 °F (Sep 12, 4:00 PM)100% (Sep 5, 4:00 AM)30.40 "Hg (Sep 5, 4:00 AM)
Low18 °F (Sep 17, 5:00 AM)41% (Sep 11, 5:00 PM)29.44 "Hg (Sep 19, 2:00 AM)
Average40 °F83%30.02 "Hg
* Reported Sep 5 4:00 AM — Sep 20 4:00 AM, Thompson, Weather by CustomWeather, © 2014

Note: Actual official high and low records may vary slightly from our data, if they occured in-between our weather recording intervals... More about our weather records

Advertising

Thompson weather history for previous 24 hours

 ConditionsComfort  
Time TempWeatherWind HumidityBarometerVisibility
4:00 AM
Sep 20
30 °FPassing clouds.3 mph100%29.68 "Hg15 mi
3:00 AM28 °FPassing clouds.No wind100%29.69 "Hg15 mi
2:00 AM28 °FPassing clouds.No wind100%29.70 "Hg15 mi
1:00 AM28 °FPassing clouds.No wind100%29.70 "Hg15 mi
12:00 AM28 °FPassing clouds.No wind100%29.70 "Hg15 mi
11:00 PM
Sep 19
30 °FPartly cloudy.No wind100%29.69 "Hg15 mi
10:00 PM32 °FPartly cloudy.2 mph100%29.68 "Hg15 mi
9:00 PM34 °FPartly cloudy.No wind100%29.67 "Hg15 mi
8:00 PM37 °FBroken clouds.3 mph100%29.66 "Hg15 mi
7:00 PM46 °FPartly sunny.12 mph76%29.65 "Hg15 mi
6:00 PM48 °FOvercast.9 mph71%29.63 "Hg15 mi
5:00 PM48 °FOvercast.10 mph76%29.62 "Hg15 mi
4:00 PM48 °FMostly cloudy.9 mph76%29.61 "Hg15 mi
3:00 PM48 °FOvercast.10 mph76%29.60 "Hg15 mi
2:00 PM46 °FMore clouds than sun.9 mph87%29.60 "Hg15 mi
1:00 PM46 °FMostly cloudy.7 mph87%29.58 "Hg15 mi
12:00 PM48 °FDrizzle. Mostly cloudy.12 mph94%29.57 "Hg8 mi
11:00 AM48 °FOvercast.9 mph94%29.55 "Hg15 mi
10:00 AM48 °FDrizzle. More clouds than sun.7 mph100%29.54 "Hg10 mi
9:00 AM48 °FDrizzle. More clouds than sun.7 mph100%29.52 "Hg8 mi
8:00 AM48 °FDrizzle. Mostly cloudy.3 mph100%29.50 "Hg7 mi
7:00 AM48 °FDrizzle. Mostly cloudy.3 mph100%29.49 "Hg7 mi
6:00 AM48 °FDrizzle. Mostly cloudy.3 mph100%29.48 "Hg15 mi
5:00 AM50 °FDrizzle. Mostly cloudy.9 mph100%29.47 "Hg15 mi
Weather by CustomWeather, © 2014

See weather overviewHow to use our weather pages